This demonstration page uses our WeatherBlox Daily Observations layout. Learn more.

Left ArrowRight Arrow

Hourly Observations for October 5, 2019

Temp ( °F °C ) Dew Point ( °F °C ) Humidity (%) Winds ( mph kmh ) Pressure ( in mb ) Visibility ( mi km ) Precip ( " mm )
12:53 am 00:53 Clear 72 22.2 53 11.7 52 52 SSE 7 11 29.93 1014 10 16 0.00 0.00
1:53 am 01:53 Mostly Clear 69 20.6 53 11.7 57 57 E 5 7 29.93 1013 10 16 0.00 0.00
2:53 am 02:53 Mostly Cloudy 69 20.6 53 11.7 57 57 ESE 7 11 29.92 1013 10 16 0.00 0.00
3:53 am 03:53 Partly Cloudy 69 20.6 53 11.7 57 57 SE 7 11 29.90 1013 10 16 0.00 0.00
4:53 am 04:53 Clear 69 20.6 53 11.7 57 57 SE 8 13 29.91 1013 10 16 0.00 0.00
5:53 am 05:53 Clear 68 20 53 11.7 59 59 SE 8 13 29.90 1013 10 16 0.00 0.00
6:53 am 06:53 Clear 67 19.4 54 12.2 63 63 ESE 7 11 29.91 1013 10 16 0.00 0.00
7:53 am 07:53 Sunny 66 18.9 54 12.2 65 65 SSE 6 9 29.91 1013 10 16 0.00 0.00
8:53 am 08:53 Sunny 69 20.6 55 12.8 61 61 SE 5 7 29.94 1014 10 16 0.00 0.00
9:53 am 09:53 Sunny 74 23.3 56 13.3 54 54 ESE 3 6 29.95 1014 10 16 0.00 0.00
10:53 am 10:53 Sunny 81 27.2 56 13.3 42 42 W 5 7 29.94 1014 10 16 0.00 0.00
11:53 am 11:53 Sunny 84 28.9 57 13.9 40 40 W 3 6 29.95 1014 10 16 0.00 0.00
12:53 pm 12:53 Mostly Sunny 87 30.6 58 14.4 37 37 W 9 15 29.92 1013 10 16 0.00 0.00
1:53 pm 13:53 Sunny 89 31.7 57 13.9 34 34 VRB 7 11 29.90 1013 10 16 0.00 0.00
2:53 pm 14:53 Sunny 91 32.8 52 11.1 26 26 VRB 5 7 29.86 1011 10 16 0.00 0.00
3:53 pm 15:53 Sunny 92 33.3 48 8.9 22 22 NNW 6 9 29.84 1010 10 16 0.00 0.00
4:53 pm 16:53 Sunny 93 33.9 48 8.9 21 21 WNW 14 22 29.82 1010 10 16 0.00 0.00
5:53 pm 17:53 Sunny 92 33.3 50 10 24 24 WNW 12 19 29.81 1010 10 16 0.00 0.00
6:53 pm 18:53 Sunny 90 32.2 52 11.1 27 27 W 8 13 29.82 1010 10 16 0.00 0.00
7:53 pm 19:53 Clear 85 29.4 54 12.2 35 35 W 5 7 29.84 1010 10 16 0.00 0.00
8:53 pm 20:53 Clear 83 28.3 54 12.2 37 37 Calm 29.85 1011 10 16 0.00 0.00
9:53 pm 21:53 Clear 76 24.4 55 12.8 48 48 N 5 7 29.86 1011 10 16 0.00 0.00
10:53 pm 22:53 Clear 75 23.9 56 13.3 52 52 NNE 7 11 29.86 1011 10 16 0.00 0.00
11:53 pm 23:53 Clear 73 22.8 54 12.2 51 51 N 9 15 29.86 1011 10 16 0.00 0.00

Powered by AerisWeather